Retour au catalogue

STARLINK-34955

ActifCommunicationsSSO
NORAD 65192·PAYLOAD·🇺🇸 United States

Lancé Aug 14, 2025 depuis Vandenberg Space Force Base

Loading…

Prochains Passages (prochaines 24 heures)

TLE

FraisSource: CelesTrak SupGP

Époque: Sep 15, 2026, 03:49 UTC

1 65192C 25175U   26258.15951389 -.00001151  00000+0 -35721-4 0  2586
2 65192  97.2842 127.2241 0001974  95.5833 304.0819 15.33445587    11

Suivez STARLINK-34955 en temps réel avec AllMySat

Download on the App Store